TimeCDT,TemperatureF,Dew PointF,Humidity,Sea Level PressureIn,VisibilityMPH,Wind Direction,Wind SpeedMPH,Gust SpeedMPH,PrecipitationIn,Events,Conditions,WindDirDegrees,DateUTC
12:15 AM,84.2,71.6,66,29.86,10.0,South,6.9,-,N/A,,Clear,190,2013-07-23 05:15:00
12:35 AM,84.2,71.6,66,29.84,10.0,SSW,11.5,-,N/A,,Clear,200,2013-07-23 05:35:00
12:55 AM,84.2,71.6,66,29.84,10.0,South,11.5,-,N/A,,Clear,190,2013-07-23 05:55:00
1:15 AM,82.4,71.6,70,29.84,10.0,South,11.5,-,N/A,,Clear,190,2013-07-23 06:15:00
1:35 AM,82.4,71.6,70,29.83,10.0,SSW,11.5,-,N/A,,Clear,200,2013-07-23 06:35:00
1:55 AM,82.4,71.6,70,29.83,10.0,SW,9.2,-,N/A,,Clear,220,2013-07-23 06:55:00
2:15 AM,82.4,71.6,70,29.83,10.0,SSW,9.2,-,N/A,,Clear,210,2013-07-23 07:15:00
2:35 AM,82.4,71.6,70,29.83,10.0,SW,10.4,-,N/A,,Clear,220,2013-07-23 07:35:00
2:55 AM,80.6,71.6,74,29.84,10.0,SSW,9.2,-,N/A,,Clear,210,2013-07-23 07:55:00
3:15 AM,80.6,71.6,74,29.84,10.0,SSW,8.1,-,N/A,,Clear,200,2013-07-23 08:15:00
3:35 AM,80.6,71.6,74,29.85,10.0,SSW,6.9,-,N/A,,Clear,210,2013-07-23 08:35:00
3:55 AM,78.8,71.6,78,29.85,10.0,SSW,6.9,-,N/A,,Clear,200,2013-07-23 08:55:00
4:15 AM,77.0,71.6,83,29.86,10.0,South,4.6,-,N/A,,Clear,180,2013-07-23 09:15:00
4:35 AM,75.2,71.6,89,29.87,10.0,SSE,4.6,-,N/A,,Clear,160,2013-07-23 09:35:00
4:55 AM,75.2,71.6,89,29.86,10.0,South,5.8,-,N/A,,Clear,170,2013-07-23 09:55:00
5:15 AM,73.4,71.6,94,29.86,10.0,Calm,Calm,-,N/A,,Clear,0,2013-07-23 10:15:00
5:35 AM,73.4,71.6,94,29.86,10.0,Calm,Calm,-,N/A,,Clear,0,2013-07-23 10:35:00
5:55 AM,73.4,71.6,94,29.87,10.0,Calm,Calm,-,N/A,,Clear,0,2013-07-23 10:55:00
6:20 AM,73.4,71.6,94,29.87,10.0,SSE,5.8,-,N/A,,Scattered Clouds,150,2013-07-23 11:20:00
7:50 AM,78.8,73.4,83,29.89,10.0,South,8.1,-,N/A,,Scattered Clouds,180,2013-07-23 12:50:00
8:50 AM,84.2,71.6,66,29.89,10.0,SSW,11.5,-,N/A,,Scattered Clouds,200,2013-07-23 13:50:00
10:50 AM,93.2,71.6,49,29.88,10.0,SSW,13.8,-,N/A,,Scattered Clouds,210,2013-07-23 15:50:00
11:50 AM,95.0,71.6,47,29.90,10.0,SSW,8.1,-,N/A,,Mostly Cloudy,200,2013-07-23 16:50:00
12:50 PM,96.8,69.8,41,29.86,10.0,SW,12.7,-,N/A,,Mostly Cloudy,220,2013-07-23 17:50:00
1:55 PM,98.6,69.8,39,29.84,10.0,South,11.5,-,N/A,,Mostly Cloudy,180,2013-07-23 18:55:00
3:50 PM,100.4,69.8,37,29.81,10.0,SSW,16.1,-,N/A,,Scattered Clouds,200,2013-07-23 20:50:00
4:50 PM,100.4,69.8,37,29.80,10.0,South,18.4,-,N/A,,Scattered Clouds,180,2013-07-23 21:50:00
5:50 PM,98.6,69.8,39,29.78,10.0,SSE,16.1,-,N/A,,Scattered Clouds,160,2013-07-23 22:50:00
6:59 PM,96.8,69.8,41,29.77,10.0,South,13.8,-,N/A,,Scattered Clouds,190,2013-07-23 23:59:00
7:50 PM,95.0,69.8,44,29.75,10.0,South,11.5,-,N/A,,Scattered Clouds,180,2013-07-24 00:50:00
8:50 PM,87.8,71.6,58,29.77,10.0,SSE,9.2,-,N/A,,Mostly Cloudy,150,2013-07-24 01:50:00
9:15 PM,86.0,71.6,62,29.78,10.0,SSE,8.1,-,N/A,,Clear,150,2013-07-24 02:15:00
9:35 PM,84.2,71.6,66,29.78,10.0,SSE,9.2,-,N/A,,Clear,160,2013-07-24 02:35:00
9:55 PM,86.0,71.6,62,29.79,10.0,South,8.1,-,N/A,,Clear,180,2013-07-24 02:55:00
10:15 PM,86.0,71.6,62,29.80,10.0,SSE,6.9,-,N/A,,Clear,160,2013-07-24 03:15:00
10:35 PM,86.0,71.6,62,29.79,10.0,South,9.2,-,N/A,,Clear,190,2013-07-24 03:35:00
10:55 PM,86.0,71.6,62,29.79,10.0,South,10.4,-,N/A,,Clear,190,2013-07-24 03:55:00
11:15 PM,86.0,71.6,62,29.82,10.0,WSW,11.5,17.3,N/A,,Clear,240,2013-07-24 04:15:00
11:35 PM,86.0,71.6,62,29.80,10.0,SSE,10.4,-,N/A,,Clear,160,2013-07-24 04:35:00
11:55 PM,80.6,69.8,70,29.81,10.0,ENE,10.4,-,N/A,,Clear,70,2013-07-24 04:55:00